Wind_Speed
110 111 113 114 115 117 118 119 120 121 122 122 122 122 121 120 119 119 118 117 117 116 116 115 115 114 114 114 114 113 113 113 113 112 112 112 111 111 111 110 110 109 109 108 108 107 106 106 106 106 106 105 105 105 106 106 106 106 106 106 106 106 106 106 106 106 106 105 105 105 105 105 106 106 106 106 107 107 107 107 107 108 108 109 110 111
114 115 117 117 118 120 121 121 121 122 122 121 120 119 118 116 116 115 114 113 112 112 111 111 110 109 109 109 109 108 108 108 108 107 107 107 106 106 105 105 105 104 104 103 102 102 102 102 101 101 102 102 102 102 102 102 102 102 102 102 102 102 102 102 102 102 102 102 102 102 101 102 102 102 102 102 102 103 103 103 103 103 104 104 105 106
117 119 120 120 120 121 121 121 121 120 119 118 117 115 114 112 111 110 110 109 108 108 107 106 106 105 105 104 104 104 104 103 103 103 102 102 102 101 101 101 100 100 99 99 99 98 98 98 98 98 98 98 98 98 98 98 98 98 98 98 99 99 99 99 99 99 99 99 99 98 98 98 98 98 99 99 99 99 99 99 99 100 100 101 101 102
120 121 122 122 121 121 120 120 119 117 116 114 112 111 109 108 107 107 106 105 104 104 103 102 102 101 101 100 100 100 99 99 99 99 98 98 98 98 97 97 97 96 96 96 95 95 95 95 95 95 95 95 95 95 95 95 95 95 95 95 95 95 95 96 96 96 96 96 96 96 95 95 95 95 95 96 96 96 96 96 96 97 97 97 98 99
122 122 122 122 121 120 118 117 115 113 111 110 108 107 106 105 104 103 102 102 101 100 100 99 98 98 97 97 96 96 95 95 95 95 95 94 94 94 94 94 93 93 93 93 92 92 92 92 92 92 92 92 92 91 91 91 91 91 91 92 92 92 92 93 93 93 93 93 93 93 92 92 92 92 92 93 93 93 93 93 93 94 94 95 95 96
123 122 121 120 119 117 115 113 111 110 108 106 105 103 103 102 101 100 100 99 98 97 96 96 95 94 94 93 92 92 91 91 91 91 91 91 90 90 90 90 90 90 90 89 89 89 89 89 89 88 88 88 88 88 88 88 88 88 88 88 89 89 89 89 90 90 90 90 90 89 89 89 89 89 89 90 90 90 90 90 91 91 91 92 92 93
122 121 119 118 116 114 112 110 108 106 105 104 102 101 100 99 98 97 97 96 95 94 93 92 92 91 90 89 89 88 88 87 87 87 87 87 87 87 87 87 87 86 86 86 86 86 86 85 85 85 85 85 84 84 84 84 85 85 85 85 86 86 86 86 86 87 87 87 87 87 87 86 86 86 87 87 87 87 88 88 88 88 89 89 90 90
120 119 117 115 113 111 108 106 105 103 102 101 100 99 97 96 95 94 94 93 92 91 90 89 89 88 87 86 85 84 84 84 84 84 84 84 84 84 84 84 83 83 83 83 83 82 82 82 82 81 81 81 81 81 81 81 82 82 82 83 83 83 83 83 84 84 84 84 84 84 84 84 84 84 84 84 85 85 85 85 86 86 86 86 87 87
118 116 114 112 110 108 106 104 102 101 99 98 97 96 95 94 92 91 91 90 90 89 87 86 85 85 84 83 82 82 81 81 81 81 81 81 81 81 81 80 80 80 80 79 79 79 79 79 78 78 78 78 78 78 78 79 79 79 80 80 80 80 80 81 81 81 81 81 81 81 81 81 81 81 81 82 82 83 83 83 83 84 84 84 84 85
115 113 111 109 107 105 103 102 100 99 97 96 95 94 92 91 89 88 88 88 87 86 85 83 82 82 81 80 80 79 79 79 79 79 79 78 78 78 77 77 77 76 76 76 76 76 76 76 75 75 75 75 75 76 76 76 76 76 77 77 77 78 78 78 78 79 79 79 79 79 79 79 79 79 79 80 80 80 81 81 81 82 82 82 82 82
112 110 108 106 104 102 101 99 98 96 95 94 93 91 90 88 87 85 85 85 84 84 83 81 80 79 78 78 77 77 77 77 77 76 76 75 75 74 74 74 74 74 74 74 74 73 73 73 73 73 73 73 73 73 73 73 73 74 74 75 75 75 76 76 76 76 76 76 76 76 76 76 76 77 77 77 78 78 79 79 79 80 80 80 80 80
109 107 105 103 102 100 98 97 95 94 93 91 90 89 87 86 84 83 82 82 81 81 80 79 78 76 75 75 75 75 75 74 74 73 73 72 71 71 71 71 71 71 71 71 71 71 71 70 70 70 70 70 70 70 71 71 71 71 72 72 73 73 73 73 74 74 74 74 74 74 74 74 74 74 75 75 76 76 77 77 78 78 78 78 79 79
105 104 102 100 99 97 96 94 93 91 90 89 87 86 85 84 82 81 80 80 79 78 78 77 76 74 73 73 72 72 72 72 71 70 70 69 68 68 68 68 69 69 69 69 69 68 68 68 68 68 68 68 68 68 68 68 69 69 70 70 70 70 71 71 71 71 71 71 71 71 71 71 72 72 73 73 74 74 75 75 76 76 77 77 77 77
102 101 99 98 96 94 93 91 90 89 88 86 85 84 82 81 80 79 79 78 77 76 75 74 73 72 71 70 70 70 70 69 69 68 67 66 65 65 66 66 66 66 66 66 66 66 66 65 65 65 65 65 65 66 66 66 66 67 67 67 68 68 68 68 68 69 68 69 69 69 69 69 69 70 70 71 71 72 72 73 74 74 75 75 76 76
99 98 96 95 93 92 90 89 87 86 85 84 83 81 80 79 78 77 76 76 75 74 72 72 70 69 68 68 67 67 67 66 66 65 64 64 63 63 63 63 63 63 63 63 63 63 63 63 63 63 63 63 63 63 64 64 64 64 64 65 65 65 66 66 66 66 66 66 66 66 66 66 67 67 67 68 69 69 70 71 71 72 72 73 74 74
97 95 94 92 91 90 88 87 85 84 83 82 81 80 79 77 76 75 74 73 72 71 70 69 68 67 66 65 65 64 64 64 63 63 62 61 61 61 61 61 61 61 61 60 61 61 61 61 60 60 60 60 61 61 61 61 61 62 62 62 62 62 63 63 63 63 63 63 63 63 63 64 64 64 65 65 66 67 67 68 69 69 70 71 71 72
94 93 91 90 89 88 86 85 84 82 81 80 79 78 77 75 74 73 72 71 70 69 68 67 66 65 64 63 62 62 61 61 60 60 59 59 59 58 58 58 58 58 58 58 58 58 58 58 58 58 58 58 58 58 58 58 58 59 59 59 59 60 60 60 60 60 60 60 60 60 61 61 61 62 62 62 63 64 64 65 66 67 67 68 69 70
92 91 89 88 87 86 85 83 82 81 80 79 78 76 75 74 72 71 69 68 67 66 66 65 64 63 62 61 61 60 59 58 58 57 56 56 56 56 56 56 56 56 56 55 55 56 56 56 56 55 55 56 56 56 56 56 56 56 56 56 56 57 57 57 57 57 57 58 58 58 58 58 59 59 59 60 60 61 61 62 63 64 65 66 66 67
91 90 88 87 85 84 83 82 81 79 78 77 76 75 73 72 70 69 67 66 65 64 63 62 62 61 60 59 59 58 57 56 55 55 54 54 54 54 54 54 53 53 53 53 53 53 53 53 53 53 53 53 53 53 53 53 53 53 53 53 53 54 54 54 54 54 55 55 55 55 56 56 56 57 57 57 58 58 59 60 61 61 62 63 64 65
89 88 87 85 84 83 82 81 79 78 76 75 74 72 71 70 68 66 65 63 62 61 60 60 59 59 58 57 57 56 55 54 53 52 52 51 51 51 51 51 51 51 50 50 50 50 50 50 50 50 50 50 50 51 50 50 50 50 50 50 51 51 51 51 52 52 52 53 53 53 53 54 54 55 55 55 56 56 57 58 58 59 60 61 62 62
88 87 85 84 83 81 80 79 78 76 74 73 71 70 69 67 66 64 63 61 60 59 58 57 57 56 56 55 55 54 53 52 51 50 50 49 49 49 49 49 49 48 48 48 48 48 48 48 48 48 48 48 48 48 48 48 48 48 48 48 48 48 49 49 49 49 50 50 50 51 51 52 52 52 53 53 54 54 55 56 56 57 58 59 59 60
86 85 84 82 81 80 79 77 76 74 72 71 69 68 66 65 64 62 61 59 58 57 56 55 54 54 53 53 52 52 51 50 49 48 48 47 47 46 46 46 46 46 46 45 45 45 45 45 45 45 45 45 45 46 46 46 46 46 45 46 46 46 46 46 47 47 47 48 48 48 49 49 50 50 51 51 52 52 53 53 54 55 56 56 57 58
84 83 82 81 80 78 77 76 74 72 71 69 67 65 64 63 61 60 59 57 56 55 54 53 52 51 50 50 50 49 49 48 47 46 45 45 45 45 44 44 44 44 43 43 43 43 43 43 43 43 43 43 43 43 43 43 43 43 43 43 43 44 44 44 44 45 45 45 46 46 47 47 48 48 49 49 50 50 51 52 52 53 54 54 55 56
83 82 81 79 78 77 75 74 72 70 68 67 65 63 62 60 59 58 56 55 54 53 51 50 49 49 48 48 47 47 46 46 45 44 43 43 43 43 42 42 42 42 41 41 41 41 41 41 41 41 40 40 40 40 40 41 41 41 41 41 41 41 41 42 42 42 43 43 44 44 45 45 46 46 47 47 48 49 49 50 51 51 52 53 53 54
81 80 79 77 76 74 73 71 69 68 66 65 63 61 60 58 57 55 54 53 52 50 49 48 47 47 46 45 45 45 45 44 43 42 41 41 41 41 41 40 40 40 39 39 39 39 40 40 39 39 38 38 38 38 38 38 38 38 39 39 39 39 39 40 40 40 41 41 41 42 42 43 44 44 45 46 46 47 48 48 49 50 50 51 51 52
79 78 77 75 74 72 70 69 67 65 64 62 61 59 58 56 55 54 52 51 50 49 48 47 46 45 44 43 43 43 43 42 41 40 40 39 39 39 39 38 38 38 38 37 37 37 38 38 37 37 36 36 36 36 36 36 36 36 36 37 37 37 37 37 38 38 39 39 39 40 41 41 42 43 43 44 45 45 46 47 47 48 48 49 50 50
77 75 74 72 71 69 67 66 64 63 61 60 58 57 56 54 53 52 51 50 48 47 46 45 44 43 42 42 41 41 41 41 40 40 38 38 37 37 37 37 37 36 36 36 36 36 36 36 36 35 34 34 34 34 34 34 34 34 34 35 35 35 35 36 36 36 37 37 38 38 39 40 41 41 42 43 43 44 45 45 46 46 47 47 48 48
74 73 71 70 68 66 65 63 62 60 59 58 56 55 53 52 51 50 49 48 47 46 45 44 43 42 42 41 40 40 40 40 39 39 38 37 36 36 36 35 35 35 35 35 34 34 34 34 34 33 33 32 32 32 32 32 32 32 32 32 33 33 33 34 34 35 35 36 36 37 38 38 39 40 41 41 42 42 43 43 44 44 45 45 46 46
72 70 68 67 65 63 62 61 59 58 57 55 54 53 51 50 49 48 48 47 46 45 44 43 42 41 41 40 39 39 39 38 38 37 37 36 35 35 34 34 34 34 34 34 34 33 33 33 32 31 31 30 30 30 30 30 30 30 30 30 31 31 32 32 33 33 33 34 35 35 36 37 38 39 39 40 40 41 41 42 42 43 43 44 44 44
70 68 66 64 62 61 59 58 57 56 54 53 52 50 49 48 48 47 46 45 44 43 43 42 41 40 40 39 38 38 38 37 37 36 36 35 35 34 34 33 33 33 33 33 33 32 32 31 30 30 29 29 28 28 28 28 28 28 28 29 29 30 30 30 31 31 32 32 33 34 35 36 36 37 38 38 39 39 40 40 40 41 41 42 42 42
67 65 63 62 60 59 57 56 55 53 52 51 49 48 47 47 46 45 44 44 43 42 41 41 40 39 38 37 37 37 37 37 36 36 35 35 34 34 33 33 32 32 32 32 32 31 30 29 29 28 28 27 27 27 27 26 26 26 27 27 28 28 28 29 29 29 30 31 31 32 33 34 35 35 36 36 37 37 38 38 39 39 40 40 40 40
64 62 61 59 58 56 55 54 52 51 50 49 47 46 46 45 44 43 43 42 41 41 40 40 39 38 37 36 35 35 35 36 36 35 35 34 34 33 33 32 32 31 31 31 31 30 30 28 27 27 26 26 25 25 25 25 25 25 25 26 26 26 27 27 27 27 28 29 30 31 31 32 33 33 34 34 35 35 36 36 37 37 37 38 38 38
62 60 59 57 56 54 53 52 50 49 48 47 46 45 44 43 42 42 41 41 40 40 39 39 38 37 36 35 35 34 34 34 34 34 34 34 33 33 32 32 31 30 30 29 29 29 28 27 26 25 25 24 24 23 23 23 23 24 24 24 25 25 25 25 25 26 27 27 28 29 30 30 31 31 32 32 33 33 34 34 34 35 35 36 36 36
59 58 56 55 54 53 51 50 49 47 46 45 44 43 43 42 41 40 40 39 39 38 38 38 37 37 36 35 35 34 33 33 33 33 33 33 33 32 32 31 30 29 29 28 28 27 27 26 25 24 23 22 22 22 22 22 22 22 23 23 23 23 23 23 24 24 25 26 27 27 28 28 29 29 29 30 30 31 31 32 32 33 33 33 33 34
57 56 54 53 52 51 49 48 47 46 45 44 43 42 41 41 40 39 38 38 37 37 37 36 36 36 36 35 35 34 34 33 33 33 33 33 32 31 31 30 29 28 28 27 27 26 26 25 24 23 22 21 21 20 20 20 21 21 21 21 21 21 21 22 22 23 24 24 25 25 26 26 27 27 27 28 28 29 29 30 30 30 31 31 31 31
55 54 52 51 50 49 48 46 45 44 43 42 42 41 40 40 39 38 38 37 36 36 36 35 35 35 35 35 34 34 34 34 33 33 33 32 32 31 30 29 28 28 27 27 26 26 25 24 23 22 21 20 20 19 19 19 19 20 20 20 20 20 20 21 21 22 22 23 23 24 24 25 25 25 26 26 27 27 27 28 28 28 28 29 29 29
53 52 51 50 48 47 46 45 44 43 42 41 41 40 39 39 38 38 37 36 35 35 35 34 34 34 34 34 34 34 33 33 33 33 33 32 32 31 30 29 28 27 27 26 26 25 24 23 22 21 20 19 18 18 18 18 18 18 18 18 18 18 19 19 20 21 21 21 22 22 23 23 23 24 24 24 25 25 26 26 26 26 26 26 27 27
51 50 49 48 47 46 45 44 43 42 41 40 39 39 38 38 37 37 36 36 35 34 34 34 34 34 33 33 33 33 33 33 33 33 32 32 31 30 29 28 27 26 26 25 25 24 23 22 21 20 19 18 18 17 17 17 17 17 17 17 17 17 18 18 19 19 20 20 20 21 21 21 22 22 22 23 23 23 24 24 24 24 24 24 24 25
49 48 47 46 45 44 44 43 42 41 40 39 38 38 37 37 36 36 35 35 35 34 34 33 33 33 33 33 33 32 32 32 32 32 32 31 31 30 29 28 27 26 25 24 24 23 22 21 20 19 18 17 16 16 16 16 15 15 16 16 16 16 17 17 18 18 18 19 19 19 20 20 20 20 21 21 21 21 22 22 22 22 22 22 22 23
47 46 45 45 44 43 42 42 41 40 39 38 37 37 36 36 35 35 35 34 34 34 33 33 33 33 32 32 32 32 32 31 31 31 31 31 30 29 28 27 26 25 24 23 23 22 21 20 19 18 17 16 15 15 15 14 14 14 14 15 15 15 16 16 17 17 17 17 18 18 18 18 18 18 19 19 19 19 20 20 20 20 20 20 20 21
45 45 44 43 43 42 41 41 40 39 38 38 37 36 36 35 34 34 34 34 34 33 33 33 32 32 31 32 31 31 31 31 30 30 30 30 29 29 28 26 25 24 23 22 22 21 20 18 17 16 15 15 14 14 13 13 13 14 14 14 14 14 15 15 16 16 16 16 16 17 17 17 17 17 17 17 17 18 18 18 18 18 18 18 18 19
44 43 43 42 41 41 40 39 39 38 38 37 36 36 35 34 34 34 34 33 33 33 33 33 32 32 31 31 30 30 30 29 29 29 29 29 28 28 27 26 25 24 23 22 21 20 18 17 16 15 14 13 13 12 12 12 13 13 13 13 13 14 14 14 14 15 15 15 15 15 15 15 15 15 16 16 16 16 16 16 16 16 16 17 17 17
42 42 41 41 40 40 39 38 38 37 37 37 36 35 34 34 33 33 33 33 33 33 33 33 32 32 31 30 29 29 28 28 28 28 28 27 27 26 26 25 24 23 22 21 20 19 17 16 14 13 12 12 11 11 12 12 12 12 12 13 13 13 13 13 13 13 13 13 13 14 14 14 14 14 14 14 14 14 14 14 14 14 15 15 15 15
41 40 40 40 39 39 38 38 37 37 36 36 35 34 34 33 32 32 32 33 33 33 33 33 32 32 31 30 29 28 27 27 26 26 26 26 26 25 25 24 23 22 21 20 19 18 16 14 13 12 11 11 11 11 11 11 11 11 12 12 12 12 12 12 12 12 12 12 12 12 12 13 13 13 13 13 13 13 12 12 13 13 13 13 13 14
40 39 39 38 38 38 37 37 37 36 36 35 35 34 33 32 32 31 31 32 32 33 33 33 32 32 31 30 29 27 26 26 25 25 25 25 25 24 24 23 22 21 20 19 18 17 15 13 12 11 10 10 10 10 10 10 11 11 11 11 11 11 11 11 11 11 11 11 11 11 11 11 11 11 11 11 11 11 11 11 11 11 11 12 12 13
38 38 38 37 37 37 37 36 36 35 35 35 34 33 33 32 31 31 30 31 31 32 32 32 32 31 30 29 28 27 26 25 24 24 24 24 23 23 23 22 21 20 19 18 17 15 14 12 11 10 9 9 9 10 10 10 10 10 11 11 10 10 10 10 9 9 9 9 9 10 10 10 10 10 10 10 10 10 10 10 10 10 10 10 11 11
38 37 37 36 36 36 36 35 35 35 34 34 34 33 32 31 31 30 30 30 30 30 31 31 31 31 30 29 28 27 25 24 23 23 22 23 22 22 22 21 20 19 17 17 16 14 13 11 10 9 8 8 9 9 9 10 10 10 10 10 9 9 9 8 8 8 8 8 8 8 9 9 9 9 9 9 9 8 8 8 8 8 9 9 10 10
37 36 36 35 35 35 35 34 34 34 33 33 33 32 31 31 30 29 29 29 29 29 30 30 30 30 29 28 27 26 24 23 22 22 22 22 22 21 21 20 18 17 16 15 14 13 12 11 10 9 8 8 8 9 9 9 9 9 9 9 9 8 8 7 7 7 7 7 7 7 7 8 8 7 7 7 7 7 7 7 7 7 7 8 9 9
36 35 35 34 34 34 33 33 33 33 32 32 32 31 31 30 29 29 28 28 28 28 29 29 29 29 28 27 26 24 23 22 22 21 21 21 21 20 20 19 17 16 15 14 13 12 11 10 9 8 8 8 8 8 9 9 9 9 9 8 8 7 6 6 6 5 5 6 6 6 6 7 6 6 6 6 5 6 6 6 6 6 6 7 8 9
35 34 34 33 33 33 32 32 32 32 31 31 31 30 30 29 29 28 28 27 27 27 28 28 28 28 27 26 25 23 22 21 21 20 20 20 20 19 18 17 16 15 14 13 13 11 10 9 8 8 7 7 7 8 8 9 9 9 8 7 7 6 5 5 4 4 4 5 5 5 5 5 5 5 5 4 4 4 4 4 5 5 6 6 7 8
34 34 33 33 32 32 32 31 31 31 30 30 30 29 29 28 28 27 27 26 26 26 27 27 27 27 26 25 24 23 22 21 20 19 19 19 19 18 17 16 15 14 13 12 12 11 9 8 8 7 7 6 7 7 8 8 8 8 8 7 6 5 4 4 3 3 4 4 4 4 4 4 4 3 3 3 3 3 3 3 4 4 5 6 7 8
Wind_Direction
299 299 299 299 298 298 297 297 296 295 294 292 291 290 289 289 288 288 287 287 286 286 285 284 284 283 283 282 281 281 281 280 280 280 279 279 279 278 278 278 278 277 277 277 277 277 276 276 275 275 274 274 273 273 272 271 271 271 270 270 270 269 269 269 268 268 268 267 267 266 266 265 265 264 264 263 263 262 262 261 261 260 259 258 258 257
301 301 300 300 299 299 298 297 296 295 294 293 292 291 291 290 290 289 288 288 287 286 286 285 284 284 283 283 282 282 282 281 281 281 280 280 280 279 279 279 278 278 278 277 277 276 276 275 274 274 273 273 272 272 271 271 271 271 270 270 270 270 269 269 269 268 268 268 267 267 266 265 265 264 264 263 263 262 262 261 260 260 259 258 258 257
302 302 301 301 300 299 298 297 296 295 294 293 293 292 292 291 291 290 289 288 288 287 286 286 285 285 284 284 283 283 282 282 282 282 281 281 280 280 279 279 278 278 277 277 276 276 275 274 274 273 273 272 272 272 271 271 271 271 270 270 270 270 270 269 269 269 268 268 267 267 266 266 265 264 264 263 263 262 262 261 260 260 259 258 258 257
303 302 302 301 300 300 298 297 296 295 295 294 294 293 293 292 292 291 290 289 288 288 287 287 286 286 285 285 284 284 283 283 283 282 282 281 281 280 280 279 278 278 277 277 276 275 275 274 274 273 273 273 272 272 272 272 271 271 271 271 270 270 270 269 269 268 268 267 267 267 266 266 265 265 264 264 263 262 262 261 260 260 259 258 257 257
303 303 302 302 301 300 299 298 297 296 296 295 295 294 294 293 292 291 291 290 289 289 288 288 287 287 286 286 285 285 284 284 283 283 282 282 281 280 280 279 278 278 277 276 276 275 275 274 274 274 273 273 273 272 272 272 272 271 271 271 270 270 269 269 269 268 268 267 267 267 266 266 265 265 264 264 263 262 262 261 260 260 259 258 257 257
304 303 303 302 301 300 299 298 298 297 297 297 296 295 294 294 293 292 292 291 291 290 289 289 288 288 287 286 286 285 285 284 284 283 282 281 281 280 279 279 278 277 277 276 276 276 275 275 274 274 274 273 273 273 273 272 272 272 271 270 270 269 269 269 268 268 268 267 267 267 266 266 265 265 264 264 263 262 262 261 260 259 259 258 257 256
304 304 303 302 301 300 300 299 299 298 298 298 297 296 295 294 294 294 293 293 292 291 291 290 289 289 288 287 287 286 286 285 284 283 282 281 280 280 279 279 278 278 277 277 277 276 276 275 275 275 274 274 274 273 273 272 272 271 271 270 270 269 269 269 268 268 268 267 267 267 266 266 265 265 264 264 263 262 262 261 260 259 259 258 257 256
305 304 303 303 302 301 300 300 300 299 299 298 297 297 296 295 295 295 294 294 293 292 292 291 290 290 289 289 288 287 286 285 284 283 282 281 281 280 279 279 279 279 278 278 277 277 277 276 276 275 275 274 274 273 273 272 272 271 271 270 270 269 269 269 268 268 268 267 267 267 266 266 265 265 264 264 263 262 262 261 260 259 259 258 257 256
305 305 304 303 302 302 301 301 300 300 299 299 298 297 297 297 296 296 296 295 294 293 293 292 291 291 290 290 289 288 287 286 285 283 283 282 281 281 281 280 280 280 279 279 278 278 277 277 276 276 275 274 274 273 272 272 271 271 271 270 270 270 269 269 268 268 268 267 267 266 266 265 265 265 264 264 263 262 262 261 260 260 259 258 257 256
306 305 304 303 303 302 302 302 301 300 300 299 299 298 298 298 298 297 297 296 295 294 294 293 292 292 291 291 290 289 287 286 285 284 284 283 283 283 282 282 281 281 280 279 278 278 277 276 276 275 275 274 273 273 272 272 272 271 271 270 270 270 269 269 268 268 267 267 267 266 266 266 265 265 264 264 263 262 262 261 261 260 259 258 257 256
306 305 304 304 303 303 302 302 302 301 301 300 300 299 299 299 299 298 298 297 296 295 295 294 293 293 292 292 291 289 288 287 286 285 285 285 284 284 283 283 282 281 280 279 278 277 277 276 276 275 275 274 274 273 273 272 272 271 271 270 270 269 269 269 268 268 267 267 267 266 266 266 265 264 264 263 263 262 262 261 261 260 259 258 258 257
306 305 305 304 304 303 303 302 302 302 301 301 301 300 300 300 300 299 299 298 297 297 296 295 295 294 293 292 291 290 289 288 287 287 286 286 285 285 284 283 281 280 280 279 278 278 277 277 276 276 275 274 274 274 273 272 272 271 271 270 270 269 269 269 268 268 268 267 267 266 266 265 265 264 264 263 262 262 261 261 260 260 259 258 258 257
306 305 305 304 304 303 303 303 303 302 302 302 302 302 301 301 301 300 300 299 298 297 297 296 295 295 294 293 292 291 290 289 288 288 287 287 286 285 283 282 281 281 280 280 279 279 278 277 277 276 275 275 274 274 273 272 272 271 271 270 270 269 269 269 268 268 268 267 266 266 265 265 264 264 263 263 262 261 261 260 260 259 259 258 258 257
306 305 305 304 304 304 303 303 303 303 303 303 303 303 302 302 302 301 300 300 299 298 298 297 296 295 295 294 293 292 291 290 289 289 288 287 286 285 284 283 282 281 281 280 280 279 278 278 277 276 276 275 274 274 273 273 272 271 271 270 270 270 269 269 268 268 267 267 266 266 265 264 264 263 263 262 262 261 260 260 259 259 258 258 257 257
306 305 305 305 304 304 304 304 304 304 304 304 304 303 303 303 302 302 301 300 300 299 298 298 297 296 295 294 293 293 292 291 290 290 289 288 287 286 285 284 283 282 281 281 280 279 279 278 277 276 276 275 275 274 273 273 272 272 271 271 270 270 269 269 269 268 267 267 266 266 265 264 263 263 262 262 261 260 260 259 259 258 258 257 257 256
306 306 305 305 305 305 305 305 305 305 305 305 304 304 304 304 303 302 302 301 301 300 299 298 298 297 296 295 294 293 293 292 291 290 290 289 288 286 285 285 284 283 282 281 281 280 279 279 278 277 276 276 275 274 273 273 272 272 272 271 271 270 270 269 269 268 268 267 266 266 265 264 263 262 262 261 261 260 259 259 258 258 257 257 256 255
306 306 306 306 306 306 306 306 306 306 306 306 305 305 305 304 304 303 303 302 301 301 300 299 299 298 297 296 295 294 293 293 292 291 290 290 289 287 286 285 284 284 283 282 281 281 280 279 279 278 277 276 275 275 274 273 273 272 272 271 271 270 270 269 269 268 268 267 266 266 265 264 263 262 262 261 260 260 259 258 258 257 257 256 255 255
307 307 307 307 307 307 307 307 307 307 307 306 306 306 305 305 304 304 303 303 302 302 301 300 299 299 298 297 296 295 294 293 293 292 291 290 289 288 287 286 285 285 284 283 282 282 281 280 279 279 278 277 276 275 274 274 273 272 272 271 271 270 270 269 269 268 268 267 266 266 265 264 263 262 262 261 260 259 259 258 258 257 256 256 255 254
308 308 308 308 308 308 308 308 308 308 307 307 307 306 306 305 305 304 304 303 303 302 302 301 300 299 299 298 297 296 295 294 293 293 292 291 290 289 288 287 286 285 285 284 283 282 282 281 280 279 278 277 277 276 275 274 273 273 272 271 271 270 270 269 269 268 267 267 266 265 265 264 263 262 262 261 260 259 258 258 257 257 256 255 255 254
309 309 309 309 309 309 309 308 308 308 308 307 307 307 306 306 305 305 304 304 303 303 302 302 301 300 300 299 298 297 296 295 295 294 293 292 291 290 289 288 287 286 286 285 284 283 282 281 280 280 279 278 277 276 276 275 274 273 272 272 271 270 270 269 268 268 267 266 266 265 264 264 263 262 262 261 260 259 258 258 257 256 256 255 255 254
310 310 309 309 309 309 309 309 309 308 308 308 307 307 306 306 306 305 305 305 304 304 303 302 302 301 300 300 299 298 297 296 296 295 294 293 292 291 290 289 288 287 287 285 285 284 283 282 281 280 279 279 278 277 276 275 275 274 273 272 271 270 269 269 268 267 267 266 265 265 264 263 263 262 261 261 260 259 258 258 257 256 256 255 255 254
310 310 310 310 310 310 309 309 309 309 308 308 308 307 307 307 306 306 306 305 305 304 304 303 302 301 301 300 299 298 298 297 297 296 295 294 293 291 290 290 289 288 287 286 285 284 283 282 281 280 280 279 278 277 277 276 275 274 273 272 271 270 270 269 268 267 267 266 265 264 264 263 263 262 261 261 260 259 258 258 257 256 256 255 254 254
311 310 310 310 310 310 310 309 309 309 309 308 308 308 307 307 307 307 306 306 305 305 304 303 302 302 301 300 300 299 299 298 297 297 296 295 294 292 291 290 289 288 288 287 286 285 283 282 281 281 280 279 278 278 277 276 275 275 274 273 272 271 270 269 268 267 267 266 265 264 264 263 262 262 261 260 260 259 258 258 257 256 256 255 254 254
311 310 310 310 310 310 310 310 309 309 309 309 308 308 308 308 307 307 307 306 306 305 304 304 303 302 302 301 300 300 299 299 298 298 297 296 295 294 293 292 291 290 289 288 287 285 284 283 282 281 280 280 279 278 277 277 276 275 274 274 272 271 270 270 269 268 267 266 265 265 264 263 262 262 261 260 259 259 258 257 257 256 255 255 254 253
311 311 310 310 310 310 310 310 310 309 309 309 309 309 308 308 308 308 307 307 306 306 305 304 304 303 302 302 301 301 300 299 299 298 298 297 296 295 294 293 292 291 290 289 288 286 285 284 283 282 282 281 280 279 278 277 276 276 275 274 273 272 271 270 269 268 267 267 266 265 264 263 262 262 261 260 259 258 258 257 256 256 255 254 254 253
311 311 310 310 310 310 310 310 310 309 309 309 309 309 309 309 308 308 308 307 307 306 306 305 304 304 303 303 302 302 301 300 300 299 299 298 297 296 295 294 293 292 291 290 289 288 286 285 285 284 283 282 281 280 279 278 277 276 275 274 273 273 272 271 270 269 268 267 266 265 264 263 262 262 261 260 259 258 258 257 256 256 255 254 254 253
311 311 310 310 310 310 310 310 309 309 309 309 309 309 309 309 309 309 308 308 308 307 307 306 306 305 304 304 303 303 302 302 301 301 300 299 298 297 297 296 295 294 292 291 290 289 288 287 286 285 284 283 282 281 280 278 277 276 275 274 274 273 272 271 270 269 268 267 266 265 264 263 263 262 261 260 259 259 258 257 256 256 255 254 254 253
311 311 310 310 310 310 310 310 309 310 310 310 310 310 310 310 310 310 309 309 309 308 308 307 307 306 306 305 304 304 303 303 303 302 302 301 300 299 298 298 297 295 294 293 291 290 289 288 287 287 286 284 283 282 281 279 278 277 276 275 274 273 272 271 270 269 268 267 266 265 264 263 263 262 261 260 260 259 258 258 257 256 255 255 254 253
311 311 310 310 310 310 310 310 310 310 310 310 310 310 310 310 310 310 310 309 309 309 308 308 308 307 307 306 306 305 305 304 304 304 304 303 302 301 300 300 299 297 296 294 293 292 291 290 289 288 287 286 284 283 282 280 279 278 277 276 275 273 272 271 270 269 268 267 266 265 264 264 263 262 262 261 260 260 259 259 258 257 256 255 254 253
311 311 311 310 310 310 310 310 310 310 310 311 311 311 311 311 310 310 310 310 309 309 309 308 308 308 308 307 307 307 306 305 305 305 305 304 304 303 302 301 300 299 298 296 295 294 293 292 291 290 289 287 286 284 283 282 281 279 278 277 275 273 272 271 270 269 268 267 266 265 265 264 263 262 262 261 261 260 260 259 258 258 257 256 255 253
311 311 311 310 310 310 310 310 310 310 311 311 311 311 311 311 310 310 310 310 310 309 309 309 308 308 308 309 308 308 307 307 307 307 306 306 305 305 304 303 302 301 299 298 297 296 295 293 293 292 291 289 287 286 285 283 282 281 279 277 275 274 272 272 271 270 269 268 267 265 265 264 263 263 262 262 261 261 260 260 259 258 257 256 255 254
311 311 311 310 310 310 310 310 311 311 311 311 311 311 311 311 310 310 310 310 310 310 309 309 309 309 309 310 309 309 309 309 309 309 308 308 307 307 306 305 304 302 301 299 298 297 297 295 294 293 292 290 289 288 287 285 283 281 279 277 276 275 274 273 272 271 269 268 267 266 265 264 264 263 263 262 262 261 260 260 259 258 257 256 255 254
311 311 311 311 310 310 311 311 311 311 311 311 311 311 311 311 310 310 310 310 310 310 310 310 311 311 311 311 311 311 310 310 310 310 310 309 309 308 308 307 306 304 303 301 300 299 298 297 296 295 293 292 290 289 288 286 284 282 280 278 277 276 275 274 273 272 270 269 268 267 266 265 265 264 264 263 262 261 261 260 259 258 257 256 255 254
311 311 311 311 311 311 311 311 311 311 311 311 311 311 311 311 311 311 311 311 311 311 312 312 312 312 313 313 313 312 312 312 311 311 311 310 310 310 309 309 308 306 305 303 302 301 300 299 298 297 295 293 292 290 288 286 284 282 281 279 278 277 277 275 274 272 271 269 268 268 267 267 266 265 265 264 263 262 261 260 259 258 257 256 255 254
311 311 311 311 311 311 311 311 312 312 311 311 311 311 311 311 311 311 312 312 312 312 312 312 313 313 314 314 314 314 314 314 314 313 312 312 311 311 310 310 310 309 308 306 305 303 303 301 300 299 297 295 293 291 289 287 285 283 282 281 280 279 278 276 274 273 271 271 270 269 269 268 267 267 266 265 264 263 262 261 260 259 257 256 255 253
312 311 311 311 311 311 312 312 312 312 312 312 312 312 312 312 312 312 312 312 313 313 313 313 313 314 314 315 315 315 315 315 315 315 314 313 313 312 312 312 312 311 310 308 307 306 305 304 302 301 299 297 294 292 290 288 286 285 283 283 281 280 279 277 275 274 273 272 271 271 270 270 269 268 268 267 265 264 263 262 261 259 258 256 255 253
312 312 311 311 312 312 312 312 312 312 312 312 312 312 312 312 312 313 313 313 313 313 313 313 313 314 314 315 315 315 316 316 316 316 315 314 314 314 314 314 313 312 311 310 309 307 306 305 304 302 301 298 296 294 291 289 288 286 285 284 283 281 279 277 276 275 274 273 273 272 272 271 270 270 269 268 267 265 264 263 261 260 258 256 255 253
312 312 312 312 312 312 312 312 312 312 312 312 313 313 313 313 313 313 313 313 313 313 313 313 313 314 314 315 315 315 316 316 316 316 315 315 315 315 315 315 314 313 312 311 310 308 307 306 305 304 302 300 297 295 293 291 290 288 287 286 284 282 280 278 277 275 275 274 273 273 272 272 271 270 269 268 268 266 265 264 262 260 259 256 254 252
313 312 312 312 312 313 313 313 313 313 313 313 313 313 314 314 314 314 314 313 313 313 313 313 313 314 314 315 315 316 316 316 316 316 316 315 315 315 315 315 315 315 313 312 310 309 307 306 305 304 303 301 299 296 295 293 292 291 289 288 286 283 281 279 277 276 275 275 274 274 273 273 272 271 270 269 268 267 266 264 263 261 259 257 254 252
313 313 313 313 313 313 313 313 313 313 314 314 314 314 315 314 314 314 314 313 313 313 313 313 314 314 314 315 315 316 316 316 316 316 316 316 315 315 316 316 316 316 315 313 311 309 307 306 305 304 302 301 300 299 297 296 295 294 292 291 289 286 283 281 279 278 277 276 276 275 274 274 273 273 272 270 269 268 267 265 264 261 259 257 254 251
314 313 313 313 313 313 313 314 314 314 314 315 315 315 315 315 315 315 314 313 313 313 313 313 313 313 314 314 314 315 315 316 316 316 316 316 316 316 316 317 317 317 316 315 312 310 308 306 304 303 302 302 301 301 300 300 299 298 296 295 292 289 286 283 281 280 279 279 278 277 277 276 275 274 273 272 271 269 268 266 264 262 259 256 253 251
314 314 314 314 314 314 314 314 314 315 315 315 316 316 316 316 316 315 315 314 313 312 312 312 312 312 313 313 313 314 315 315 316 316 316 316 316 316 317 317 318 318 317 316 314 311 309 306 304 303 304 304 304 304 304 304 303 302 300 297 294 291 288 286 284 283 282 282 281 280 280 278 277 276 275 273 272 270 269 267 265 262 259 256 253 249
315 314 314 314 314 314 314 315 315 315 316 316 316 317 317 317 316 316 315 314 313 313 312 312 312 312 312 312 313 313 314 315 316 316 317 316 316 317 317 318 319 319 318 317 316 313 310 308 307 306 307 308 308 308 309 309 307 306 303 299 296 293 290 288 287 286 285 285 284 284 283 281 280 279 277 275 274 272 270 268 265 262 258 255 251 248
315 315 315 315 315 315 315 316 316 316 316 317 317 317 317 317 317 316 316 315 314 313 312 313 313 313 313 313 313 313 314 315 316 317 317 317 317 317 318 319 319 320 320 319 317 315 312 310 309 311 312 314 314 314 313 313 311 309 305 301 297 294 291 290 289 289 288 287 287 287 286 285 283 281 280 278 275 273 271 268 265 261 258 254 250 246
316 316 315 315 315 316 316 317 317 317 317 317 317 318 318 318 317 317 316 315 314 313 313 313 313 313 313 313 314 314 315 316 317 318 318 317 317 318 319 320 321 321 321 321 319 317 314 312 313 315 318 319 321 321 319 317 314 311 307 303 299 297 294 292 292 291 290 290 290 290 290 288 287 284 282 280 277 275 272 268 265 261 257 253 248 243
316 316 316 316 316 317 317 317 317 318 318 318 318 318 318 318 318 318 317 316 314 313 313 312 313 313 314 314 314 314 315 316 317 318 318 318 318 319 319 321 322 323 323 323 322 320 318 317 318 320 324 327 327 326 324 321 317 313 309 305 302 300 298 297 296 295 294 294 294 294 295 293 290 288 284 282 279 276 272 268 264 260 255 250 245 240
317 317 317 317 317 317 317 318 318 318 318 318 318 318 319 319 319 318 317 316 315 313 313 312 313 313 314 315 315 315 316 317 318 319 319 319 319 320 321 322 324 324 325 324 323 322 321 322 323 326 331 334 333 331 328 323 319 314 310 308 306 303 301 301 300 300 300 300 301 301 300 297 294 290 286 283 279 276 272 267 262 256 251 246 240 236
318 318 318 318 318 318 318 318 318 319 319 319 319 319 319 319 319 319 318 317 315 314 313 312 312 313 314 315 315 316 317 318 319 321 321 321 321 321 322 324 326 327 327 327 326 324 324 326 328 331 335 338 338 336 331 326 321 317 313 311 308 307 305 305 306 306 308 308 308 307 305 301 297 292 288 284 280 275 269 263 258 251 245 239 233 229
318 318 319 319 319 319 319 319 319 319 319 319 319 319 319 319 319 319 319 317 316 315 313 313 312 313 314 315 316 317 319 320 321 322 322 322 322 322 323 325 327 329 330 328 327 327 327 329 331 334 336 339 341 340 336 330 325 320 317 314 311 310 310 310 312 314 317 317 317 314 309 304 298 292 288 283 277 271 264 257 250 243 236 229 224 219
319 319 319 319 319 320 319 319 319 319 320 320 320 320 320 320 320 319 319 318 317 315 314 313 313 314 314 316 317 319 320 321 322 322 323 322 322 323 324 327 329 331 331 330 328 328 329 333 336 339 338 338 340 341 339 335 329 324 320 318 315 314 315 317 321 324 329 329 327 320 314 306 299 291 285 278 271 263 254 245 238 231 224 218 213 209
320 320 320 320 320 320 320 320 320 320 320 320 321 321 321 320 320 319 319 318 317 316 315 314 314 314 315 316 318 319 321 322 323 324 324 323 323 324 325 327 330 333 333 332 330 329 331 337 343 347 346 344 341 341 340 338 334 329 325 321 319 319 321 327 333 339 344 342 336 329 320 309 298 290 280 268 259 246 236 226 220 214 209 205 201 199
Height
10325 10320 10315 10311 10307 10302 10295 10287 10281 10277 10271 10263 10256 10250 10247 10243 10240 10235 10231 10227 10223 10219 10215 10212 10209 10207 10203 10200 10197 10193 10190 10187 10185 10183 10181 10179 10178 10176 10174 10172 10171 10170 10169 10168 10167 10167 10166 10165 10163 10162 10161 10160 10158 10157 10157 10156 10155 10155 10154 10153 10153 10153 10153 10153 10153 10154 10155 10156 10157 10158 10159 10160 10161 10162 10163 10164 10166 10168 10170 10172 10175 10177 10180 10182 10184 10186
10312 10307 10302 10297 10293 10289 10282 10273 10266 10260 10253 10248 10242 10238 10233 10230 10227 10222 10218 10214 10210 10205 10202 10198 10196 10193 10190 10188 10185 10182 10178 10176 10173 10172 10170 10168 10166 10165 10163 10162 10160 10159 10158 10157 10156 10155 10153 10152 10151 10150 10148 10147 10146 10145 10145 10144 10144 10143 10143 10142 10142 10142 10142 10142 10143 10143 10143 10144 10145 10146 10147 10148 10149 10150 10151 10152 10154 10156 10158 10160 10162 10165 10167 10168 10171 10173
10300 10295 10289 10282 10278 10273 10267 10260 10252 10245 10238 10233 10229 10226 10222 10217 10213 10209 10205 10200 10197 10192 10189 10186 10183 10181 10178 10176 10173 10171 10168 10165 10163 10161 10159 10157 10155 10153 10152 10150 10148 10147 10146 10145 10144 10143 10142 10140 10138 10137 10137 10136 10135 10135 10134 10134 10133 10133 10133 10132 10132 10132 10132 10132 10132 10132 10133 10133 10134 10135 10135 10137 10137 10138 10140 10141 10143 10144 10146 10148 10150 10152 10154 10156 10158 10160
10287 10282 10276 10269 10263 10257 10251 10245 10238 10232 10225 10222 10218 10213 10210 10205 10200 10196 10192 10188 10184 10180 10177 10175 10172 10170 10167 10165 10162 10160 10157 10155 10152 10150 10148 10146 10144 10142 10140 10138 10137 10136 10135 10133 10132 10131 10130 10128 10128 10127 10126 10125 10125 10125 10124 10124 10124 10123 10123 10123 10122 10122 10122 10121 10121 10121 10122 10122 10123 10123 10125 10125 10127 10128 10129 10130 10132 10133 10135 10137 10138 10140 10142 10144 10146 10148
10272 10268 10262 10256 10249 10242 10235 10229 10224 10218 10213 10210 10206 10202 10197 10192 10187 10183 10180 10176 10173 10169 10167 10164 10162 10159 10157 10154 10152 10150 10147 10145 10142 10140 10138 10135 10133 10131 10129 10127 10126 10124 10123 10122 10121 10120 10119 10118 10118 10117 10117 10116 10115 10115 10115 10115 10115 10114 10113 10113 10112 10112 10111 10111 10111 10111 10111 10112 10112 10113 10114 10115 10117 10118 10118 10120 10121 10122 10124 10125 10127 10129 10131 10132 10134 10136
10258 10253 10248 10242 10236 10228 10221 10215 10211 10207 10202 10198 10194 10190 10186 10180 10176 10172 10168 10165 10162 10159 10156 10153 10151 10148 10145 10143 10142 10140 10138 10135 10132 10129 10127 10124 10122 10120 10118 10116 10115 10113 10113 10112 10111 10110 10110 10109 10108 10108 10107 10107 10107 10107 10106 10105 10105 10105 10103 10103 10102 10102 10102 10101 10101 10101 10102 10102 10103 10103 10105 10105 10107 10107 10108 10109 10110 10112 10113 10114 10116 10118 10120 10122 10123 10125
10246 10240 10233 10227 10221 10215 10209 10204 10200 10196 10192 10187 10182 10178 10174 10170 10166 10162 10158 10154 10151 10148 10146 10143 10140 10137 10135 10133 10132 10130 10127 10124 10121 10118 10115 10113 10111 10109 10107 10106 10105 10104 10103 10103 10102 10102 10100 10100 10100 10099 10099 10098 10098 10098 10097 10096 10095 10095 10093 10093 10092 10092 10092 10092 10092 10092 10092 10093 10093 10094 10095 10096 10097 10097 10098 10099 10100 10101 10102 10103 10105 10107 10109 10111 10112 10114
10233 10227 10220 10213 10207 10202 10198 10193 10189 10185 10181 10176 10171 10167 10163 10160 10156 10152 10148 10143 10140 10138 10136 10133 10130 10127 10124 10123 10122 10120 10117 10113 10110 10107 10104 10102 10100 10099 10098 10097 10096 10095 10095 10094 10093 10093 10092 10091 10091 10090 10090 10090 10089 10088 10087 10087 10085 10085 10084 10083 10083 10083 10083 10083 10083 10083 10083 10083 10084 10085 10085 10086 10087 10088 10088 10090 10090 10091 10092 10093 10095 10097 10098 10100 10102 10103
10221 10215 10208 10202 10196 10191 10187 10182 10178 10173 10170 10165 10161 10157 10153 10150 10147 10143 10139 10133 10130 10127 10126 10123 10120 10117 10115 10113 10111 10109 10106 10102 10099 10097 10094 10092 10091 10090 10090 10089 10088 10088 10087 10086 10085 10084 10083 10082 10082 10082 10081 10080 10080 10079 10078 10077 10077 10076 10075 10075 10075 10074 10074 10074 10074 10074 10074 10074 10075 10076 10077 10077 10078 10079 10080 10080 10081 10082 10082 10083 10085 10087 10088 10090 10092 10094
10209 10203 10196 10190 10185 10181 10177 10172 10167 10163 10159 10155 10151 10147 10143 10141 10138 10135 10130 10125 10120 10117 10115 10113 10112 10109 10107 10103 10101 10098 10095 10092 10090 10087 10086 10085 10084 10083 10082 10082 10081 10080 10078 10077 10076 10075 10074 10073 10073 10073 10072 10072 10071 10070 10070 10069 10068 10068 10067 10067 10066 10066 10065 10065 10065 10065 10065 10066 10067 10067 10068 10069 10070 10070 10071 10072 10072 10073 10073 10074 10075 10077 10078 10080 10082 10084
10198 10192 10185 10180 10175 10170 10167 10163 10158 10154 10150 10145 10142 10138 10134 10132 10129 10126 10122 10117 10112 10108 10106 10103 10102 10101 10098 10095 10092 10088 10085 10083 10080 10079 10078 10078 10078 10077 10075 10073 10072 10070 10068 10067 10067 10066 10065 10065 10065 10064 10063 10063 10062 10062 10062 10061 10060 10060 10059 10058 10058 10057 10057 10057 10057 10057 10058 10058 10058 10059 10060 10060 10061 10062 10062 10063 10063 10064 10065 10065 10067 10067 10069 10070 10072 10074
10188 10182 10177 10172 10166 10162 10157 10153 10149 10145 10141 10137 10133 10129 10125 10123 10120 10117 10113 10108 10104 10100 10097 10095 10093 10092 10090 10087 10083 10079 10076 10074 10072 10072 10071 10071 10070 10069 10067 10065 10062 10060 10060 10058 10058 10058 10058 10057 10057 10056 10055 10055 10055 10055 10054 10053 10053 10052 10051 10050 10050 10049 10049 10049 10049 10050 10050 10050 10051 10052 10052 10052 10053 10053 10054 10054 10055 10055 10056 10057 10058 10058 10060 10062 10063 10065
10179 10173 10168 10163 10158 10153 10148 10145 10141 10137 10132 10128 10125 10122 10118 10114 10111 10108 10104 10100 10097 10093 10090 10087 10085 10083 10082 10078 10075 10071 10068 10066 10065 10064 10064 10063 10062 10061 10058 10055 10053 10052 10052 10051 10050 10050 10050 10050 10049 10048 10048 10047 10047 10047 10046 10045 10045 10044 10043 10043 10042 10042 10042 10042 10042 10042 10042 10043 10043 10043 10044 10045 10045 10045 10046 10046 10047 10047 10048 10048 10049 10050 10052 10053 10054 10056
10171 10165 10160 10155 10150 10145 10141 10137 10133 10129 10125 10120 10117 10114 10111 10107 10103 10100 10096 10092 10089 10086 10083 10080 10077 10075 10073 10070 10067 10064 10061 10059 10058 10057 10057 10056 10054 10052 10050 10048 10046 10045 10045 10044 10043 10042 10042 10042 10041 10040 10040 10040 10039 10038 10038 10037 10037 10036 10035 10035 10035 10035 10034 10034 10034 10034 10035 10035 10035 10036 10036 10037 10037 10037 10038 10038 10038 10039 10040 10040 10041 10042 10043 10044 10045 10047
10162 10157 10152 10147 10142 10137 10133 10130 10126 10122 10117 10113 10110 10107 10103 10100 10096 10092 10088 10085 10082 10078 10075 10073 10070 10068 10066 10063 10060 10057 10054 10052 10051 10050 10049 10048 10047 10045 10043 10041 10039 10038 10038 10037 10036 10035 10034 10034 10033 10033 10033 10032 10032 10031 10030 10030 10029 10029 10028 10028 10028 10027 10027 10027 10027 10027 10027 10027 10028 10028 10028 10029 10029 10030 10030 10030 10030 10031 10032 10032 10033 10033 10035 10036 10037 10038
10153 10147 10143 10138 10134 10129 10125 10122 10118 10115 10110 10106 10102 10099 10096 10092 10088 10085 10082 10078 10075 10071 10068 10065 10063 10060 10058 10057 10054 10051 10048 10046 10044 10043 10042 10041 10039 10038 10036 10034 10032 10032 10031 10030 10029 10028 10027 10027 10027 10026 10025 10025 10025 10024 10023 10023 10022 10022 10022 10022 10021 10020 10020 10020 10020 10020 10020 10020 10020 10020 10021 10021 10022 10022 10022 10023 10023 10023 10024 10025 10025 10026 10027 10028 10029 10031
10143 10139 10135 10131 10127 10122 10117 10113 10110 10107 10103 10098 10095 10092 10088 10085 10082 10078 10075 10072 10068 10065 10062 10059 10056 10053 10051 10049 10047 10045 10043 10040 10038 10037 10036 10034 10032 10030 10029 10027 10026 10025 10025 10024 10023 10022 10020 10020 10020 10019 10018 10018 10018 10017 10017 10017 10016 10016 10015 10015 10014 10014 10013 10013 10013 10013 10013 10013 10013 10013 10013 10014 10015 10015 10015 10016 10016 10017 10017 10018 10018 10019 10020 10021 10022 10023
10135 10130 10127 10123 10118 10114 10110 10106 10103 10100 10096 10092 10088 10084 10081 10078 10075 10072 10069 10066 10062 10059 10055 10052 10050 10048 10045 10042 10040 10038 10038 10035 10033 10031 10030 10028 10027 10024 10023 10021 10020 10019 10018 10018 10017 10015 10014 10013 10013 10012 10012 10012 10011 10010 10010 10010 10010 10010 10009 10008 10008 10007 10007 10007 10007 10007 10007 10007 10007 10007 10007 10007 10008 10008 10008 10009 10010 10010 10010 10011 10012 10012 10013 10013 10014 10015
10127 10122 10118 10115 10111 10107 10102 10099 10096 10093 10089 10085 10082 10078 10074 10071 10068 10066 10063 10060 10057 10053 10050 10047 10043 10041 10039 10036 10033 10032 10031 10030 10028 10026 10025 10023 10021 10018 10017 10015 10014 10013 10013 10012 10011 10010 10008 10008 10007 10007 10006 10005 10005 10004 10004 10004 10003 10003 10003 10003 10002 10002 10002 10002 10001 10001 10001 10001 10001 10001 10001 10001 10002 10002 10002 10003 10003 10003 10004 10004 10005 10005 10005 10006 10007 10008
10119 10114 10111 10108 10104 10100 10095 10092 10089 10086 10083 10079 10075 10072 10068 10065 10063 10060 10057 10054 10052 10048 10045 10042 10038 10035 10033 10030 10028 10026 10025 10023 10022 10020 10019 10018 10015 10013 10012 10010 10009 10008 10008 10007 10005 10004 10003 10002 10002 10001 10000 10000 9999 9998 9998 9998 9998 9998 9997 9997 9997 9997 9996 9996 9995 9995 9995 9995 9995 9995 9995 9995 9995 9996 9996 9997 9997 9997 9997 9998 9998 9998 9999 10000 10000 10002
10112 10107 10103 10100 10097 10093 10089 10085 10082 10079 10077 10073 10070 10067 10063 10060 10057 10054 10051 10049 10046 10043 10040 10037 10034 10031 10028 10026 10023 10021 10019 10018 10017 10015 10014 10013 10011 10009 10007 10005 10004 10003 10002 10002 10000 9999 9998 9997 9996 9995 9995 9995 9994 9993 9993 9993 9992 9992 9992 9992 9992 9991 9991 9990 9990 9990 9990 9990 9990 9990 9990 9990 9990 9990 9990 9990 9990 9991 9992 9992 9992 9993 9993 9994 9995 9995
10106 10101 10097 10093 10090 10087 10083 10079 10075 10073 10070 10068 10065 10061 10058 10054 10051 10048 10045 10043 10041 10038 10035 10033 10030 10027 10024 10021 10018 10016 10015 10013 10012 10010 10009 10007 10006 10004 10003 10001 10000 9998 9998 9997 9995 9994 9993 9992 9992 9991 9990 9990 9989 9988 9988 9988 9987 9987 9987 9987 9986 9986 9986 9985 9985 9985 9985 9985 9985 9985 9985 9985 9985 9985 9985 9985 9985 9985 9986 9986 9986 9987 9987 9988 9988 9989
10099 10095 10090 10087 10083 10080 10077 10073 10070 10067 10064 10062 10059 10055 10052 10049 10047 10043 10040 10038 10036 10033 10030 10028 10025 10022 10020 10017 10015 10012 10010 10009 10007 10006 10005 10003 10001 10000 9998 9997 9995 9994 9993 9993 9991 9990 9988 9988 9987 9987 9986 9985 9985 9984 9983 9983 9982 9982 9982 9982 9981 9981 9980 9980 9980 9980 9980 9980 9980 9980 9980 9980 9980 9979 9979 9979 9980 9980 9980 9980 9980 9981 9982 9982 9983 9983
10092 10088 10084 10080 10077 10074 10071 10068 10064 10061 10058 10055 10052 10050 10047 10044 10042 10038 10036 10033 10031 10028 10026 10023 10021 10018 10015 10013 10011 10008 10006 10005 10003 10002 10001 9998 9997 9995 9994 9993 9992 9990 9989 9988 9987 9985 9984 9983 9983 9982 9982 9981 9981 9980 9980 9978 9978 9977 9977 9977 9976 9976 9976 9975 9975 9975 9975 9975 9975 9975 9975 9974 9974 9974 9974 9974 9974 9974 9974 9975 9975 9975 9976 9977 9977 9978
10087 10082 10078 10075 10072 10068 10065 10062 10058 10055 10052 10049 10047 10044 10042 10039 10037 10034 10031 10028 10026 10024 10022 10019 10017 10014 10012 10010 10007 10005 10002 10001 10000 9998 9997 9995 9993 9992 9990 9989 9988 9987 9985 9984 9983 9982 9980 9979 9978 9978 9978 9977 9977 9976 9975 9975 9974 9973 9973 9972 9972 9972 9971 9971 9970 9970 9970 9970 9970 9970 9970 9970 9969 9969 9969 9968 9968 9968 9969 9969 9970 9970 9970 9971 9972 9972
10081 10077 10073 10070 10067 10063 10060 10057 10053 10050 10048 10045 10042 10039 10037 10034 10032 10029 10027 10024 10022 10019 10017 10015 10013 10010 10008 10006 10003 10001 9998 9997 9995 9995 9993 9992 9990 9988 9987 9985 9984 9983 9981 9980 9979 9978 9976 9975 9974 9974 9973 9973 9972 9972 9971 9970 9970 9969 9968 9968 9967 9967 9967 9967 9966 9966 9966 9965 9965 9965 9965 9964 9964 9963 9963 9963 9963 9963 9963 9964 9964 9965 9965 9965 9966 9967
10076 10072 10069 10065 10062 10058 10055 10052 10049 10046 10043 10040 10037 10035 10032 10030 10027 10024 10022 10020 10017 10015 10013 10010 10008 10006 10004 10003 10000 9998 9995 9993 9992 9990 9990 9988 9987 9984 9983 9982 9980 9979 9978 9977 9975 9974 9973 9972 9970 9970 9970 9969 9968 9968 9967 9966 9965 9965 9965 9964 9963 9963 9963 9962 9962 9962 9961 9961 9960 9960 9960 9959 9959 9958 9958 9958 9958 9958 9959 9959 9960 9960 9960 9960 9961 9962
10071 10067 10063 10060 10057 10053 10050 10047 10045 10042 10038 10036 10033 10031 10028 10025 10023 10020 10017 10015 10013 10011 10009 10007 10005 10002 10000 9998 9997 9995 9992 9990 9988 9987 9986 9985 9983 9981 9980 9978 9977 9975 9974 9973 9972 9970 9969 9968 9967 9967 9966 9965 9965 9963 9963 9962 9962 9961 9961 9960 9960 9959 9958 9958 9958 9957 9957 9957 9956 9955 9955 9955 9954 9954 9954 9954 9954 9954 9954 9955 9955 9955 9955 9956 9957 9957
10065 10062 10059 10055 10052 10049 10046 10043 10040 10037 10035 10032 10029 10027 10024 10022 10019 10017 10013 10012 10010 10007 10005 10003 10001 9999 9997 9995 9993 9992 9989 9987 9985 9983 9982 9981 9980 9978 9977 9975 9974 9972 9971 9969 9968 9967 9966 9965 9964 9963 9963 9962 9961 9960 9959 9958 9958 9958 9957 9957 9956 9955 9955 9954 9953 9953 9953 9952 9952 9952 9951 9950 9950 9950 9950 9950 9950 9950 9950 9950 9951 9951 9951 9952 9952 9953
10060 10057 10053 10050 10047 10045 10042 10038 10036 10033 10030 10028 10025 10023 10020 10017 10015 10013 10010 10008 10006 10004 10002 10000 9998 9996 9994 9992 9990 9988 9986 9984 9983 9981 9980 9978 9977 9975 9974 9973 9971 9970 9968 9966 9965 9963 9963 9962 9961 9960 9959 9958 9958 9957 9956 9955 9955 9954 9953 9953 9952 9952 9951 9950 9950 9950 9949 9949 9948 9948 9947 9947 9947 9946 9946 9946 9946 9946 9946 9947 9947 9947 9947 9947 9948 9948
10055 10052 10048 10045 10043 10040 10037 10034 10032 10029 10027 10024 10022 10019 10017 10014 10012 10009 10007 10005 10003 10001 9998 9997 9995 9993 9992 9990 9987 9985 9982 9981 9980 9978 9977 9975 9973 9972 9971 9970 9968 9967 9965 9964 9962 9960 9960 9959 9958 9957 9957 9955 9955 9954 9953 9953 9952 9951 9950 9950 9948 9948 9947 9947 9947 9947 9946 9945 9945 9944 9943 9943 9943 9942 9942 9942 9942 9942 9942 9943 9943 9943 9943 9943 9943 9944
10050 10047 10043 10041 10038 10035 10033 10030 10028 10025 10023 10020 10018 10015 10013 10011 10008 10006 10004 10002 10000 9997 9995 9993 9992 9990 9988 9987 9985 9983 9980 9978 9977 9975 9974 9973 9971 9970 9968 9967 9966 9964 9963 9962 9960 9958 9957 9956 9955 9955 9954 9953 9952 9952 9950 9950 9949 9948 9947 9946 9945 9945 9945 9944 9943 9943 9942 9942 9941 9940 9940 9940 9939 9939 9939 9939 9939 9939 9939 9939 9939 9939 9939 9939 9940 9940
10045 10042 10039 10036 10033 10031 10028 10026 10023 10022 10019 10017 10014 10012 10010 10008 10005 10003 10001 9999 9997 9995 9992 9990 9988 9987 9985 9984 9983 9981 9978 9977 9975 9973 9972 9970 9968 9967 9966 9965 9963 9962 9960 9959 9958 9957 9955 9954 9953 9952 9952 9950 9950 9949 9948 9947 9946 9945 9944 9943 9943 9942 9942 9941 9940 9940 9939 9938 9938 9937 9937 9937 9937 9936 9936 9936 9935 9935 9935 9935 9935 9936 9936 9936 9936 9937
10040 10037 10035 10032 10029 10027 10025 10022 10020 10018 10015 10013 10011 10009 10007 10005 10002 10000 9998 9996 9994 9992 9990 9987 9985 9983 9982 9980 9979 9978 9977 9975 9973 9971 9969 9968 9966 9965 9963 9962 9961 9960 9958 9957 9955 9954 9953 9952 9951 9950 9949 9948 9947 9947 9945 9945 9943 9943 9942 9941 9940 9940 9939 9938 9938 9937 9936 9935 9935 9934 9934 9933 9933 9933 9933 9933 9933 9932 9932 9932 9932 9932 9933 9933 9933 9933
10036 10033 10030 10028 10025 10023 10021 10018 10017 10014 10012 10010 10008 10005 10003 10001 9999 9997 9995 9993 9991 9989 9987 9985 9983 9981 9980 9978 9976 9975 9973 9972 9970 9969 9967 9966 9964 9962 9961 9960 9958 9957 9956 9955 9953 9952 9950 9950 9949 9948 9947 9946 9945 9944 9943 9942 9941 9940 9940 9938 9938 9937 9937 9935 9935 9934 9933 9932 9932 9932 9931 9931 9930 9930 9930 9930 9930 9929 9929 9929 9929 9929 9930 9930 9930 9931
10032 10029 10027 10024 10022 10020 10017 10015 10013 10011 10009 10007 10005 10002 10000 9998 9996 9994 9992 9990 9988 9986 9984 9982 9980 9979 9977 9976 9974 9972 9970 9969 9968 9966 9965 9963 9962 9960 9959 9957 9956 9955 9954 9952 9951 9950 9949 9948 9947 9946 9945 9944 9943 9942 9941 9940 9939 9938 9937 9937 9936 9935 9934 9933 9932 9931 9930 9930 9930 9929 9928 9928 9928 9928 9927 9927 9927 9927 9927 9927 9927 9927 9927 9927 9928 9928
10028 10025 10023 10020 10018 10016 10013 10012 10010 10008 10006 10003 10002 9999 9997 9995 9993 9991 9989 9987 9985 9983 9982 9980 9978 9977 9975 9974 9972 9971 9968 9967 9965 9964 9963 9961 9960 9958 9957 9955 9954 9953 9952 9950 9949 9948 9947 9946 9945 9944 9943 9942 9941 9940 9939 9938 9937 9936 9935 9935 9933 9933 9932 9930 9930 9929 9928 9928 9927 9927 9926 9926 9925 9925 9925 9925 9924 9924 9923 9923 9923 9924 9924 9925 9925 9925
10024 10022 10019 10017 10014 10012 10010 10008 10006 10004 10003 10000 9998 9997 9995 9992 9990 9988 9987 9985 9983 9981 9979 9977 9975 9974 9973 9972 9970 9968 9967 9965 9963 9962 9960 9959 9958 9957 9955 9953 9952 9951 9950 9949 9948 9947 9945 9944 9943 9942 9941 9940 9939 9938 9937 9936 9935 9934 9933 9932 9932 9930 9930 9928 9928 9927 9927 9926 9925 9925 9924 9924 9923 9923 9922 9922 9922 9921 9921 9921 9921 9921 9922 9922 9922 9923
10020 10018 10015 10013 10011 10008 10007 10005 10003 10001 9999 9997 9995 9993 9992 9990 9988 9986 9984 9982 9980 9978 9977 9975 9973 9972 9970 9968 9967 9966 9965 9963 9962 9960 9958 9957 9956 9955 9953 9952 9950 9949 9948 9947 9946 9945 9944 9943 9942 9940 9939 9938 9937 9936 9935 9934 9933 9932 9932 9930 9930 9928 9928 9927 9926 9925 9925 9924 9923 9923 9922 9922 9921 9921 9920 9920 9919 9919 9918 9918 9918 9919 9920 9920 9920 9921
10017 10014 10012 10010 10008 10005 10003 10002 10000 9998 9996 9994 9992 9991 9989 9987 9985 9983 9982 9980 9978 9976 9974 9973 9972 9970 9968 9967 9965 9964 9963 9962 9960 9958 9957 9955 9953 9952 9952 9950 9948 9948 9947 9945 9945 9943 9942 9941 9940 9939 9938 9937 9936 9935 9933 9933 9932 9931 9930 9929 9928 9927 9926 9925 9924 9923 9923 9922 9922 9921 9920 9920 9919 9919 9918 9918 9917 9917 9917 9917 9917 9917 9918 9918 9918 9918
10013 10011 10008 10007 10004 10002 10000 9998 9997 9995 9993 9991 9990 9988 9987 9985 9983 9981 9979 9977 9976 9974 9972 9971 9970 9968 9967 9965 9963 9962 9961 9959 9958 9957 9955 9953 9952 9950 9950 9948 9947 9946 9945 9944 9943 9942 9941 9940 9938 9937 9937 9935 9934 9933 9932 9931 9930 9930 9928 9927 9927 9925 9925 9923 9923 9922 9922 9921 9920 9920 9919 9918 9918 9917 9917 9916 9916 9915 9915 9915 9915 9915 9916 9917 9917 9917
10010 10008 10005 10003 10001 9999 9997 9995 9993 9992 9990 9988 9987 9985 9983 9982 9980 9978 9977 9975 9973 9972 9970 9969 9968 9967 9965 9964 9963 9961 9959 9958 9956 9955 9953 9952 9950 9949 9948 9947 9946 9945 9943 9942 9942 9940 9939 9938 9937 9936 9935 9934 9933 9932 9931 9930 9929 9928 9927 9926 9925 9924 9923 9923 9922 9921 9920 9920 9919 9918 9918 9917 9917 9916 9915 9915 9914 9914 9914 9914 9914 9914 9915 9915 9915 9915
10007 10005 10002 10000 9998 9997 9995 9993 9991 9989 9987 9985 9984 9983 9981 9980 9978 9976 9975 9973 9971 9969 9968 9967 9965 9964 9963 9962 9961 9959 9958 9956 9955 9953 9952 9950 9949 9948 9947 9945 9944 9943 9942 9941 9940 9939 9938 9937 9936 9935 9933 9933 9932 9931 9930 9929 9928 9927 9926 9925 9924 9923 9922 9922 9921 9920 9920 9919 9918 9918 9917 9917 9916 9915 9914 9913 9913 9913 9913 9913 9913 9913 9913 9913 9913 9914
10004 10002 10000 9997 9995 9993 9992 9990 9988 9987 9985 9983 9982 9980 9978 9977 9975 9974 9972 9970 9968 9967 9965 9964 9963 9962 9961 9960 9959 9958 9956 9955 9953 9952 9950 9949 9947 9946 9945 9944 9943 9942 9941 9940 9939 9938 9937 9936 9935 9933 9933 9932 9931 9930 9929 9928 9927 9926 9925 9924 9923 9923 9922 9921 9920 9920 9919 9918 9918 9917 9917 9916 9915 9914 9913 9913 9912 9912 9912 9912 9912 9912 9912 9912 9913 9913
10002 9999 9997 9995 9993 9990 9989 9987 9985 9984 9982 9980 9979 9978 9976 9975 9973 9972 9970 9968 9967 9965 9963 9962 9960 9960 9959 9958 9957 9956 9955 9953 9952 9950 9949 9947 9946 9945 9944 9943 9942 9940 9940 9938 9938 9937 9935 9935 9933 9932 9932 9931 9930 9929 9928 9927 9926 9925 9924 9923 9922 9922 9921 9920 9920 9919 9918 9917 9917 9916 9916 9915 9915 9914 9913 9912 9912 9912 9911 9911 9911 9911 9911 9912 9912 9912
9998 9996 9994 9992 9990 9988 9986 9985 9983 9981 9980 9978 9977 9975 9974 9973 9972 9970 9968 9967 9965 9963 9962 9960 9958 9958 9957 9956 9955 9954 9953 9952 9950 9949 9947 9946 9945 9943 9943 9942 9940 9940 9938 9937 9937 9936 9935 9933 9933 9932 9930 9930 9929 9928 9927 9926 9925 9924 9923 9922 9922 9921 9920 9920 9919 9918 9918 9917 9917 9916 9915 9915 9914 9913 9913 9912 9912 9911 9911 9911 9911 9911 9911 9911 9911 9912
9996 9993 9992 9990 9988 9985 9983 9982 9980 9978 9977 9976 9974 9973 9972 9970 9969 9968 9967 9965 9963 9962 9960 9958 9957 9956 9955 9954 9953 9952 9951 9950 9948 9947 9946 9945 9943 9942 9942 9940 9940 9938 9938 9937 9936 9935 9934 9933 9932 9931 9930 9929 9928 9927 9927 9925 9925 9923 9923 9922 9921 9920 9920 9920 9919 9918 9918 9917 9917 9916 9915 9915 9914 9913 9913 9912 9911 9911 9910 9911 9911 9910 9910 9910 9911 9912
9993 9991 9989 9987 9985 9983 9982 9980 9978 9977 9975 9973 9972 9971 9970 9968 9967 9966 9965 9963 9962 9960 9958 9957 9955 9954 9953 9952 9952 9951 9950 9948 9947 9946 9945 9943 9942 9942 9940 9940 9938 9938 9937 9936 9935 9934 9933 9932 9931 9930 9929 9928 9928 9927 9926 9925 9924 9923 9922 9922 9921 9920 9920 9919 9918 9918 9918 9917 9917 9916 9915 9915 9914 9913 9913 9912 9912 9911 9911 9911 9911 9910 9910 9911 9911 9911
9990 9988 9987 9985 9983 9981 9979 9978 9976 9975 9973 9972 9970 9969 9968 9967 9965 9964 9963 9962 9960 9958 9957 9955 9954 9953 9952 9951 9950 9949 9948 9947 9946 9945 9943 9942 9942 9940 9939 9938 9938 9937 9936 9935 9934 9933 9932 9932 9930 9929 9928 9928 9927 9926 9925 9925 9923 9923 9922 9921 9920 9920 9919 9919 9918 9918 9918 9917 9917 9916 9915 9915 9915 9914 9913 9912 9912 9911 9911 9911 9911 9911 9911 9911 9911 9912
9988 9986 9984 9982 9980 9979 9977 9975 9974 9973 9972 9970 9969 9967 9966 9965 9963 9962 9961 9960 9958 9957 9955 9954 9953 9952 9950 9950 9949 9948 9947 9946 9945 9944 9943 9942 9940 9939 9938 9937 9937 9936 9935 9934 9933 9933 9932 9931 9930 9929 9928 9927 9927 9925 9925 9924 9923 9922 9922 9921 9920 9920 9919 9918 9918 9918 9917 9917 9917 9916 9915 9915 9915 9914 9913 9913 9912 9912 9912 9911 9911 9912 9911 9911 9912 9912
9985 9983 9982 9980 9978 9977 9975 9973 9972 9971 9970 9968 9967 9966 9965 9963 9962 9961 9960 9958 9957 9955 9954 9953 9952 9950 9949 9948 9948 9947 9946 9945 9944 9943 9942 9940 9940 9938 9937 9937 9936 9935 9934 9933 9933 9932 9931 9930 9929 9928 9928 9927 9926 9925 9925 9924 9923 9922 9922 9921 9920 9920 9919 9919 9918 9918 9917 9917 9917 9916 9916 9915 9915 9915 9914 9913 9913 9912 9912 9912 9912 9912 9912 9912 9912 9913